Regional Weather Roundup
Issued by NWS

Home | Current Version | Previous Version | Graphics & Text | Print | Product List | Glossary On
Versions: 1 2 3 4 5 6 7 8 9 10 11 12 13 14 15 16 17 18 19 20 21 22 23 24 25 26 27 28 29 30 31 32 33 34 35 36 37 38 39 40 41 42 43 44 45 46 47 48 49 50
042
ASUS43 KIND 270459
RWRIN

WEATHER ROUNDUP FOR INDIANA
NATIONAL WEATHER SERVICE INDIANAPOLIS IN
1200 AM EST MON FEB 27 2017

NOTE: "FAIR" INDICATES FEW OR NO CLOUDS BELOW 12,000 FEET WITH NO
SIGNIFICANT WEATHER AND/OR OBSTRUCTIONS TO VISIBILITY.

* - STATION DOES NOT REPORT WEATHER SUCH AS PRECIPITATION OR FOG.

+ - STATION NOT QUALITY CONTROLLED BY THE NATIONAL WEATHER SERVICE.
    USE DATA WITH CAUTION...ESPECIALLY DEWPOINT AND RELATIVE
    HUMIDITY OBSERVATIONS.

INZ001>003-010>013-019-020-270600-
NORTHWEST INDIANA

CITY           SKY/WX    TMP DP  RH WIND       PRES   REMARKS
KNOX *+        CLEAR     32   5  32 SW8       30.10R WCI  25

$$

LMZ046-743>745-270600-
SOUTHERN LAKE MICHIGAN

STATION/POSITION TIME  TEMP    WIND        PRES    WAVE
                       AIR SEA DIR/SP/G            HT
                 (UTC) (F)     (DEG/KT/KT) (MB)    (FT)
BURNS HARBOR     0440   39     200/ 13/ 18 1019.0R
MICHIGAN CITY    0430   39     180/ 16/ 18   N/A

$$

INZ004-005-014>016-021>024-270600-
NORTH CENTRAL INDIANA

CITY           SKY/WX    TMP DP  RH WIND       PRES   REMARKS
GOSHEN         CLEAR     34  22  61 SW9       30.09R WCI  27
SOUTH BEND     CLEAR     34  22  61 SW10      30.09R WCI  26

$$

INZ006>009-017-018-025>027-270600-
NORTHEAST INDIANA

CITY           SKY/WX    TMP DP  RH WIND       PRES   REMARKS
ANGOLA *+      CLEAR     36  23  60 SW10      30.08S
FORT WAYNE     CLOUDY    37  25  61 SW9       30.12S
KENDALLVILLE + CLEAR     35  23  60 SW10      30.09S WCI  28

$$

INZ028-029-035-036-043>045-051>053-270600-
WEST CENTRAL INDIANA

CITY           SKY/WX    TMP DP  RH WIND       PRES   REMARKS
LAFAYETTE      PTCLDY    36  23  59 CALM      30.13R
TERRE HAUTE    CLOUDY    44  22  41 SW8       30.15R

$$

INZ030>032-037>040-046>048-054>057-064-065-270600-
CENTRAL INDIANA

CITY           SKY/WX    TMP DP  RH WIND       PRES   REMARKS
GREENWOOD *+   CLOUDY    43  18  37 S7        30.15S
INDIANAPOLIS   CLOUDY    41  17  38 S7        30.14R
-EAGLE CREEK   CLOUDY    39  18  42 CALM      30.13R
KOKOMO +       PTCLDY    36  24  62 S9        30.13S
MT COMFORT *+  CLOUDY    37  19  48 S5        30.14S
SHELBYVILLE    CLOUDY    43  19  38 S9        30.14S

$$

INZ033-034-041-042-049-050-058-059-270600-
EAST CENTRAL INDIANA

CITY           SKY/WX    TMP DP  RH WIND       PRES   REMARKS
MUNCIE         PTCLDY    40  18  41 S6        30.13S

$$

INZ060-061-067>069-081>083-085>088-270600-
SOUTHWEST INDIANA

CITY           SKY/WX    TMP DP  RH WIND       PRES   REMARKS
EVANSVILLE     CLOUDY    47  24  40 W5        30.17S
HUNTINGBURG *+ CLOUDY    45  25  45 S3        30.17R

$$

INZ062-063-066-070>080-084-089>092-270600-
SOUTH CENTRAL AND SOUTHEAST INDIANA

CITY           SKY/WX    TMP DP  RH WIND       PRES   REMARKS
BLOOMINGTON    CLOUDY    44  22  41 SW8       30.15R
MADISON *+     CLOUDY    41  19  42 S3        30.17F
SEYMOUR +      CLOUDY    41  27  56 S3        30.16

$$





USA.gov is the U.S. government's official web portal to all federal, state and local government web resources and services.